Starlink 31146

operational
NORAD ID: 58769 Int'l Des: 2024-011 Owner: SPXS Country: US Constellation: starlink
LEOCIRCULAR

About Starlink 31146

Description loading...

Live Position

Loading 3D Globe...

Upcoming Passes

Altitude History

Altitude vs Time

uPlot chart will show altitude changes over time

Two-Line Element Set

1 58769U 24011E 25350.29833519 .00003893 00000-0 14354-3 0 9991
2 58769 53.1611 40.9585 0001237 64.9150 295.1979 15.30190474107502
Epoch: Dec 16, 2025 • Age: 21 hours

Current Status

Altitude 476.2 km
Velocity 7.63 km/s
Sub-Earth Point 1.61°N, 64.93°E
Launch Date Jan 14, 2024
Age 1.9 years
Type internet

Technical Details

Classification Payload
Mass 730.00 kg
Dry Mass 700.00 kg
Total Mass 730.00 kg
Length 0.30 m
Diameter 4.10 m
Span 29.00 m
Shape Box + pan
Manufacturer SPXS
Bus Type Starlink V2M
Phase Status In Orbit
Owner/State SPXS/US

Large Constellations

Loading constellations...